Location: Unspecified
(48.8656°N, 0.0000°E)
Time: 09:48:16
(UTC+00:00)

Vanguard 1 - Pass Details

Date: 26 June 2019
Orbit: 653 x 3830 km, 34.3° (Epoch: 20 July)

Event Time Altitude Azimuth Distance (km) Brightness Sun altitude
Rises 04:48:20 0° 261° (W) 7,192 13.9 6.1°
Reaches altitude 10° 04:54:12 10° 255° (WSW) 5,704 13.4 6.9°
Maximum altitude 05:07:38 37° 197° (SSW) 2,717 12.1 8.9°
Drops below altitude 10° 05:15:32 10° 133° (SE) 3,366 13.2 10.1°
Sets 05:18:03 0° 124° (SE) 4,033 13.7 10.5°
